EST,Max TemperatureF,Mean TemperatureF,Min TemperatureF,Max Dew PointF,MeanDew PointF,Min DewpointF,Max Humidity, Mean Humidity, Min Humidity, Max Sea Level PressureIn, Mean Sea Level PressureIn, Min Sea Level PressureIn, Max VisibilityMiles, Mean VisibilityMiles, Min VisibilityMiles, Max Wind SpeedMPH, Mean Wind SpeedMPH, Max Gust SpeedMPH,PrecipitationIn, CloudCover, Events, WindDirDegrees
2012-11-1,46,44,42,43,41,37,96,90,79,29.58,29.52,29.46,10,9,2,16,7,18,0.19,8,Rain,238
2012-11-2,42,40,37,40,37,36,97,89,82,29.80,29.67,29.58,10,10,6,15,10,,0.10,8,Rain,281
2012-11-3,42,38,35,35,33,31,97,84,67,30.01,29.90,29.79,10,10,10,20,11,23,0.00,8,Rain,286
2012-11-4,39,36,33,32,29,23,89,75,61,30.09,30.04,30.00,10,10,10,14,9,,0.00,8,,308
2012-11-5,37,34,32,26,20,17,75,57,43,30.20,30.13,30.06,10,10,10,12,7,,0.00,8,,329
2012-11-6,41,33,25,22,19,17,85,60,41,30.25,30.20,30.13,10,10,10,10,4,,0.00,3,,84
2012-11-7,39,29,19,21,19,15,82,62,43,30.18,30.10,30.01,10,10,10,9,4,,0.00,0,,13
2012-11-8,42,34,25,23,21,19,81,64,43,30.08,30.03,29.98,10,10,10,20,9,23,0.00,0,,330
2012-11-9,43,32,21,38,29,18,97,82,57,30.21,30.15,30.06,10,9,5,12,2,,0.00,6,Rain,289
2012-11-10,51,44,37,40,38,37,97,81,61,30.35,30.30,30.20,10,7,3,9,1,,0.00,7,,140
2012-11-11,68,56,45,45,42,37,90,65,42,30.37,30.33,30.29,10,9,5,12,8,,0.20,3,Rain,111
2012-11-12,66,56,45,51,45,38,93,67,52,30.32,30.19,30.01,10,9,2,26,13,46,0.23,3,Rain,152
2012-11-13,45,40,36,42,34,25,93,81,60,30.53,30.36,30.20,10,9,6,23,11,34,0.26,8,Rain,291
2012-11-14,44,35,26,27,24,21,92,70,42,30.63,30.56,30.52,10,10,10,9,3,,0.00,0,,37
2012-11-15,42,33,24,26,23,21,88,76,45,30.52,30.44,30.36,10,10,10,7,1,,0.00,0,,105
2012-11-16,46,34,21,27,24,18,92,78,46,30.53,30.44,30.37,10,10,10,7,1,,0.00,0,,292
2012-11-17,46,34,21,32,26,20,92,82,56,30.70,30.64,30.54,10,10,9,5,1,,0.00,3,,192
2012-11-18,48,34,21,31,26,18,92,74,50,30.73,30.66,30.58,10,10,8,10,3,,0.00,0,,110
2012-11-19,50,38,26,30,25,22,84,69,39,30.58,30.45,30.28,10,10,10,8,5,,0.00,0,,118
2012-11-20,48,37,26,29,27,23,88,71,41,30.26,30.20,30.15,10,10,10,6,2,,0.00,1,,139
2012-11-21,52,40,27,30,27,24,89,72,38,30.28,30.24,30.18,10,10,10,6,2,,0.00,1,,127
2012-11-22,59,43,27,30,27,23,89,66,31,30.27,30.19,30.05,10,10,10,6,3,,0.00,0,,122
2012-11-23,55,42,30,45,32,25,89,67,40,30.04,29.81,29.68,10,10,7,17,8,25,0.10,5,Rain,152
2012-11-24,37,32,28,30,26,20,100,80,59,29.84,29.73,29.69,10,5,0,24,14,33,0.09,8,Fog-Snow,277
2012-11-25,32,28,27,30,26,18,96,87,66,29.89,29.85,29.81,10,4,1,20,8,31,0.09,8,Snow,297
2012-11-26,36,33,28,31,29,25,96,86,67,30.24,30.04,29.85,10,8,1,14,7,22,0.01,8,Snow,265
2012-11-27,36,31,26,28,25,23,96,80,59,30.31,30.28,30.24,10,10,7,9,2,,0.00,5,,339
2012-11-28,36,33,30,31,28,21,96,85,57,30.26,30.20,30.15,10,6,1,14,4,,0.05,8,Snow,263
2012-11-29,42,36,30,32,29,23,96,83,58,30.28,30.23,30.18,10,6,1,18,7,22,0.04,7,Snow,298
2012-11-30,30,27,24,25,19,13,84,74,58,30.49,30.44,30.27,10,8,2,13,8,,0.00,8,Snow,75